星链-5638 (STARLINK-5638 )

导读

STARLINK-5638是美国太空探索技术公司星链卫星互联网项目的卫星之一,于2023年1月31日发射入轨,归属美国所有。它属于星链升级批次卫星,和其他同批次星链卫星一同构建覆盖全球的低轨卫星互联网通信网络,为全球不同地区用户提供宽带互联网接入服务。

基本信息
目录编号:
55426
目录名称:
STARLINK-5638
国际标识:
2023-014AM
轨道中心:
EARTH
卫星名称:
星链-5638
卫星全名:
星链-5638 (STARLINK-5638 )
卫星状态:
在轨 (已飞行1320 天)
发射日期:
2023-01-31 UTC
国别 :
美国 (US)
星等 :
--
该卫星已列入 空间交会检测服务 Space Conjunction Data Service (SCDS) ,当前飞行风险评估等级: 无高风险
轨道信息
数据来源 国际轨道数据
星历时间: 2026-09-12T12:22:53+0800
10小时前
查看轨道信息
半长轴: 6950.184km
偏心率: 0.0003134
轨道倾角: 70.000°
近地点辐角 268.565°
升交点赤经 334.379°
平近点角 91.515°
近地点: 569.868km
远地点: 574.226km
周期: 96.107分钟
每日圈数: 14.98333
详细信息
固有亮度:
5
最大亮度:
2.5
卫星平台:
Starlink v1.5
覆盖范围:
全球
运营商:
太空探索技术公司
运营商所在国:
美国
制造商(研发单位):
太空探索技术公司
制造商所在国:
美国
使用方式:
暂无
卫星简介
星链(Starlink)计划是由太空探索技术公司(SpaceX)提出的一个巨型低轨卫星互联网星座项目,计划在2019年至2024年间在太空搭建由约1.2万颗卫星组成的“星链”网络,其中1584颗将部署在地球上空550千米处的近地轨道,并从2020年开始工作。该卫星仍在工作。
2D轨道图
3D轨道图
轨道高度分析图
轨道倾角分析图
轨道综合分析图
查看轨道综合分析图
交会数据列表
事件ID 空间交会对象 最接近时刻(TCA) 交会距离 交会风险概率(CRP) 交会风险指数(CRI) 操作
CDM_260912-204805-542606-174023
OBJECT F (61740)
2026-09-12T
20:48:41+0000
1.079 km
极远距离
1.89099E-5 中风险 0.61
CDM_260913-125004-367805-542627
2026-09-13T
12:50:49+0000
2.780 km
极远距离
1.402914E-6 低风险 0.38
CDM_260913-015405-542606-324627
2026-09-13T
01:54:07+0000
2.918 km
极远距离
1.399005E-6 低风险 0.38
CDM_260914-064401-600105-542621
2026-09-14T
06:44:18+0000
2.588 km
极远距离
1.138752E-6 低风险 0.36
与全量物体交会距离演化趋势
与全量物体交会风险概率演化趋势